Location: Camerons Lookout
(40.9833°S, 175.9333°E)
Time: 00:20:52
(UTC+00:00)

SME Rocket - Pass Details

Date: 14 January 2026
Orbit: 550 x 2634 km, 99.9° (Epoch: 16 February)

Event Time Altitude Azimuth Distance (km) Brightness Sun altitude
Exits shadow 09:17:07 17° 82° (E) 1,460 4.5 -14.0°
Maximum altitude 09:18:41 22° 115° (ESE) 1,266 4.5 -14.2°
Drops below altitude 10° 09:21:42 10° 166° (SSE) 1,907 6.0 -14.6°
Sets 09:24:17 0° 182° (S) 2,922 7.3 -14.9°
